W0LTA Weather Reports


Display with metric or nautical units.
time (UTC)temp
F
wind
direction
speed
MPH
gust
MPH
rain 1hr
in
rain 24hr
in
rain mn
in
humidity
%
barometer
mb
20180923095439 52 176 2.0 3.0 0.00 0.00 0.00 44 1017.0
20180923094921 52 180 2.0 3.0 0.00 0.00 0.00 44 1017.0
20180923094425 53 178 2.0 3.0 0.00 0.00 0.00 44 1016.8
20180923093925 53 178 2.0 3.0 0.00 0.00 0.00 43 1016.9
20180923093445 53 190 1.0 2.0 0.00 0.00 0.00 44 1017.0
20180923092924 53 190 1.0 2.0 0.00 0.00 0.00 44 1017.0
20180923092445 53 190 1.0 3.0 0.00 0.00 0.00 44 1017.1
20180923091923 53 190 2.0 4.0 0.00 0.00 0.00 41 1017.1
20180923091437 53 190 2.0 4.0 0.00 0.00 0.00 41 1017.1
20180923090940 53 186 2.0 4.0 0.00 0.00 0.00 42 1017.1
20180923090427 53 193 3.0 4.0 0.00 0.00 0.00 43 1017.2
20180923085926 53 176 2.0 3.0 0.00 0.00 0.00 42 1017.1
20180923085432 53 177 2.0 4.0 0.00 0.00 0.00 42 1017.2
20180923084931 53 180 2.0 4.0 0.00 0.00 0.00 41 1017.3
20180923084428 53 202 3.0 4.0 0.00 0.00 0.00 41 1017.3
20180923083926 53 202 4.0 4.0 0.00 0.00 0.00 41 1017.2
20180923083445 53 181 2.0 3.0 0.00 0.00 0.00 41 1017.2
20180923082941 54 202 1.0 4.0 0.00 0.00 0.00 41 1017.2
20180923082440 54 192 3.0 4.0 0.00 0.00 0.00 41 1017.3
20180923081953 54 190 3.0 4.0 0.00 0.00 0.00 41 1017.3
20180923081441 54 193 2.0 4.0 0.00 0.00 0.00 41 1017.2
20180923080939 54 195 3.0 4.0 0.00 0.00 0.00 41 1017.3
20180923080437 54 195 2.0 3.0 0.00 0.00 0.00 41 1017.4
20180923075935 55 184 2.0 3.0 0.00 0.00 0.00 41 1017.3
20180923075433 55 184 1.0 2.0 0.00 0.00 0.00 39 1017.2
20180923074933 55 187 1.0 2.0 0.00 0.00 0.00 39 1017.3
20180923074437 56 187 1.0 2.0 0.00 0.00 0.00 37 1017.4
20180923073934 56 187 0.0 1.0 0.00 0.00 0.00 37 1017.5
20180923073438 56 187 0.0 0.0 0.00 0.00 0.00 36 1017.4
20180923072935 56 187 0.0 2.0 0.00 0.00 0.00 35 1017.4
20180923072434 56 187 1.0 2.0 0.00 0.00 0.00 35 1017.4
20180923071935 56 187 1.0 2.0 0.00 0.00 0.00 35 1017.4
20180923071440 57 187 1.0 3.0 0.00 0.00 0.00 35 1017.3
20180923070943 57 187 2.0 3.0 0.00 0.00 0.00 33 1017.3
20180923070423 57 229 2.0 3.0 0.00 0.00 0.00 34 1017.3
20180923065949 57 232 2.0 3.0 0.00 0.00 0.00 34 1017.4
20180923065449 57 236 2.0 3.0 0.00 0.00 0.00 33 1017.3
20180923064933 57 271 1.0 2.0 0.00 0.00 0.00 33 1017.3
20180923064436 57 271 1.0 3.0 0.00 0.00 0.00 32 1017.3
20180923063936 58 275 1.0 3.0 0.00 0.00 0.00 33 1017.3
20180923063441 58 189 1.0 2.0 0.00 0.00 0.00 32 1017.2
20180923062948 58 189 1.0 2.0 0.00 0.00 0.00 31 1017.3
20180923062448 58 189 1.0 2.0 0.00 0.00 0.00 31 1017.3
20180923061950 59 189 0.0 1.0 0.00 0.00 0.00 30 1017.4
20180923061444 59 189 0.0 2.0 0.00 0.00 0.00 29 1017.4
20180923060943 59 189 1.0 3.0 0.00 0.00 0.00 28 1017.4
20180923060444 59 189 2.0 3.0 0.00 0.00 0.00 28 1017.5
20180923055946 59 189 2.0 3.0 0.00 0.00 0.00 27 1017.5
20180923055431 59 196 2.0 4.0 0.00 0.00 0.00 27 1017.5
20180923054937 60 191 2.0 4.0 0.00 0.00 0.00 27 1017.5
20180923054435 60 180 3.0 4.0 0.00 0.00 0.00 27 1017.5
20180923053941 60 172 3.0 5.0 0.00 0.00 0.00 27 1017.5
20180923053442 60 168 3.0 5.0 0.00 0.00 0.00 28 1017.6
20180923052940 60 175 2.0 5.0 0.00 0.00 0.00 27 1017.6
20180923052438 60 169 3.0 5.0 0.00 0.00 0.00 27 1017.6
20180923051935 60 168 3.0 5.0 0.00 0.00 0.00 27 1017.6
20180923051439 61 189 3.0 4.0 0.00 0.00 0.00 27 1017.5
20180923050941 61 177 3.0 4.0 0.00 0.00 0.00 27 1017.5
20180923050435 61 207 3.0 4.0 0.00 0.00 0.00 27 1017.5
20180923045934 61 196 3.0 5.0 0.00 0.00 0.00 27 1017.5
20180923045436 61 178 3.0 5.0 0.00 0.00 0.00 27 1017.5
20180923044941 61 198 2.0 5.0 0.00 0.00 0.00 26 1017.5
20180923044447 61 196 4.0 5.0 0.00 0.00 0.00 27 1017.6
20180923043945 61 179 3.0 4.0 0.00 0.00 0.00 28 1017.7
20180923043443 61 175 2.0 4.0 0.00 0.00 0.00 28 1017.6
20180923042945 61 181 2.0 5.0 0.00 0.00 0.00 28 1017.5
20180923042447 61 212 3.0 5.0 0.00 0.00 0.00 28 1017.6
20180923041951 62 176 2.0 5.0 0.00 0.00 0.00 28 1017.7
20180923041432 62 191 3.0 5.0 0.00 0.00 0.00 28 1017.7
20180923040933 62 163 2.0 3.0 0.00 0.00 0.00 27 1017.7
20180923040440 62 217 2.0 3.0 0.00 0.00 0.00 28 1017.6
20180923035941 62 261 2.0 3.0 0.00 0.00 0.00 28 1017.7
20180923035441 63 265 1.0 4.0 0.00 0.00 0.00 27 1017.7
20180923034944 63 264 2.0 3.0 0.00 0.00 0.00 26 1017.7
20180923034446 63 196 2.0 3.0 0.00 0.00 0.00 26 1017.7
20180923033946 63 196 2.0 3.0 0.00 0.00 0.00 25 1017.6
20180923033449 64 196 2.0 4.0 0.00 0.00 0.00 25 1017.6
20180923032937 64 199 3.0 4.0 0.00 0.00 0.00 24 1017.6
20180923032435 65 198 2.0 3.0 0.00 0.00 0.00 24 1017.6
20180923031935 65 198 2.0 3.0 0.00 0.00 0.00 24 1017.5
20180923031436 66 199 3.0 3.0 0.00 0.00 0.00 23 1017.5
20180923030935 66 202 2.0 3.0 0.00 0.00 0.00 23 1017.6
20180923030441 66 205 2.0 4.0 0.00 0.00 0.00 23 1017.6
20180923025940 67 205 3.0 4.0 0.00 0.00 0.00 23 1017.6
20180923025433 67 184 3.0 4.0 0.00 0.00 0.00 23 1017.5
20180923024935 68 173 3.0 4.0 0.00 0.00 0.00 22 1017.5
20180923024433 69 173 3.0 4.0 0.00 0.00 0.00 21 1017.5
20180923023933 69 173 3.0 4.0 0.00 0.00 0.00 21 1017.4
20180923023437 69 171 4.0 5.0 0.00 0.00 0.00 20 1017.4
20180923022959 69 170 3.0 5.0 0.00 0.00 0.00 19 1017.4
20180923022449 70 169 3.0 5.0 0.00 0.00 0.00 19 1017.4
20180923021952 70 175 2.0 3.0 0.00 0.00 0.00 19 1017.3
20180923021452 70 175 1.0 3.0 0.00 0.00 0.00 19 1017.2
20180923020950 71 176 2.0 3.0 0.00 0.00 0.00 19 1017.2
20180923020450 71 171 2.0 3.0 0.00 0.00 0.00 19 1017.2
20180923015944 72 171 2.0 4.0 0.00 0.00 0.00 18 1017.1
20180923015430 72 163 2.0 3.0 0.00 0.00 0.00 17 1017.2
20180923014949 73 162 2.0 3.0 0.00 0.00 0.00 17 1017.1
20180923014447 73 156 2.0 2.0 0.00 0.00 0.00 17 1017.1
20180923013949 74 154 2.0 3.0 0.00 0.00 0.00 17 1017.1
20180923013451 74 154 2.0 3.0 0.00 0.00 0.00 16 1017.0
20180923012951 75 171 2.0 4.0 0.00 0.00 0.00 16 1016.9
20180923012447 75 167 3.0 5.0 0.00 0.00 0.00 15 1017.0
20180923011942 76 160 3.0 5.0 0.00 0.00 0.00 16 1016.9
20180923011442 76 172 3.0 4.0 0.00 0.00 0.00 15 1017.0
20180923010944 77 153 2.0 3.0 0.00 0.00 0.00 15 1017.0
20180923010443 78 154 2.0 4.0 0.00 0.00 0.00 14 1016.9
20180923005943 78 165 2.0 4.0 0.00 0.00 0.00 13 1016.9
20180923005440 79 144 2.0 5.0 0.00 0.00 0.00 12 1016.9
20180923004940 79 180 2.0 5.0 0.00 0.00 0.00 13 1016.9
20180923004439 80 163 2.0 4.0 0.00 0.00 0.00 13 1016.8
20180923003936 80 142 1.0 3.0 0.00 0.00 0.00 12 1016.9
20180923003438 81 146 1.0 3.0 0.00 0.00 0.00 12 1016.8
20180923002939 81 128 2.0 4.0 0.00 0.00 0.00 11 1016.9
20180923002440 81 152 2.0 5.0 0.00 0.00 0.00 11 1016.8
20180923001937 81 130 2.0 5.0 0.00 0.00 0.00 12 1016.8
20180923001438 82 150 2.0 4.0 0.00 0.00 0.00 13 1016.8
20180923000937 82 156 1.0 2.0 0.00 0.00 0.00 14 1016.9
20180923000443 82 169 1.0 2.0 0.00 0.00 0.00 12 1016.8
20180922235946 83 169 1.0 4.0 0.00 0.00 0.00 12 1016.8
20180922235447 83 169 1.0 4.0 0.00 0.00 0.00 11 1016.8
20180922234937 83 169 2.0 5.0 0.00 0.00 0.00 10 1016.8
20180922234438 83 175 3.0 5.0 0.00 0.00 0.00 10 1016.8
20180922233932 83 132 2.0 6.0 0.00 0.00 0.00 11 1016.8
20180922233435 84 157 3.0 6.0 0.00 0.00 0.00 11 1016.8
20180922232936 84 146 3.0 8.0 0.00 0.00 0.00 10 1016.8
20180922232434 84 142 4.0 8.0 0.00 0.00 0.00 9 1016.7
20180922231933 84 150 3.0 7.0 0.00 0.00 0.00 11 1016.7
20180922231434 84 144 4.0 6.0 0.00 0.00 0.00 9 1016.7
20180922230934 85 165 4.0 6.0 0.00 0.00 0.00 9 1016.7
20180922230439 85 166 3.0 6.0 0.00 0.00 0.00 10 1016.7
20180922225937 85 157 3.0 9.0 0.00 0.00 0.00 9 1016.7
20180922225438 85 155 4.0 9.0 0.00 0.00 0.00 9 1016.8
20180922224937 85 158 5.0 9.0 0.00 0.00 0.00 10 1016.9
20180922224438 85 172 3.0 5.0 0.00 0.00 0.00 10 1016.9
20180922223937 85 159 3.0 7.0 0.00 0.00 0.00 10 1016.9
20180922223431 85 153 5.0 7.0 0.00 0.00 0.00 8 1016.9
20180922222952 86 146 4.0 8.0 0.00 0.00 0.00 9 1016.9
20180922222430 86 121 4.0 8.0 0.00 0.00 0.00 9 1017.0
20180922221938 86 117 2.0 7.0 0.00 0.00 0.00 9 1017.0
20180922221441 86 132 3.0 6.0 0.00 0.00 0.00 9 1017.1
20180922220939 87 121 2.0 7.0 0.00 0.00 0.00 10 1017.1
20180922220436 87 90 3.0 7.0 0.00 0.00 0.00 9 1017.2
20180922215936 87 148 1.0 7.0 0.00 0.00 0.00 9 1017.2
20180922215452 87 161 3.0 7.0 0.00 0.00 0.00 9 1017.3
20180922214950 88 142 3.0 7.0 0.00 0.00 0.00 8 1017.3
20180922214450 88 111 2.0 8.0 0.00 0.00 0.00 9 1017.4
20180922213931 87 138 3.0 12.0 0.00 0.00 0.00 8 1017.4
20180922213441 87 132 6.0 12.0 0.00 0.00 0.00 8 1017.5
20180922212937 88 152 5.0 9.0 0.00 0.00 0.00 8 1017.5
20180922212433 89 164 3.0 7.0 0.00 0.00 0.00 8 1017.6
20180922211932 89 146 4.0 9.0 0.00 0.00 0.00 9 1017.7
20180922211434 90 123 6.0 9.0 0.00 0.00 0.00 9 1017.7
20180922210936 91 109 5.0 8.0 0.00 0.00 0.00 8 1017.8
20180922210434 91 160 2.0 7.0 0.00 0.00 0.00 9 1017.9
20180922205933 90 120 3.0 7.0 0.00 0.00 0.00 8 1018.0
20180922205436 90 82 3.0 4.0 0.00 0.00 0.00 9 1018.1
20180922204935 91 73 2.0 5.0 0.00 0.00 0.00 9 1018.1
20180922204438 91 73 2.0 7.0 0.00 0.00 0.00 9 1018.2
20180922203952 91 155 3.0 7.0 0.00 0.00 0.00 9 1018.2
20180922203435 91 101 1.0 7.0 0.00 0.00 0.00 9 1018.3
20180922202938 90 148 3.0 8.0 0.00 0.00 0.00 10 1018.4
20180922202439 91 100 4.0 8.0 0.00 0.00 0.00 9 1018.5
20180922201938 91 85 1.0 4.0 0.00 0.00 0.00 10 1018.6
20180922201441 90 115 2.0 5.0 0.00 0.00 0.00 8 1018.8
20180922200940 89 120 3.0 6.0 0.00 0.00 0.00 9 1018.8
20180922200446 90 193 2.0 5.0 0.00 0.00 0.00 9 1018.9
20180922195948 89 63 3.0 5.0 0.00 0.00 0.00 11 1019.0
20180922195431 90 181 2.0 8.0 0.00 0.00 0.00 9 1019.0
20180922194932 88 84 2.0 8.0 0.00 0.00 0.00 8 1019.2
20180922194435 88 198 3.0 8.0 0.00 0.00 0.00 8 1019.2
20180922193935 90 136 4.0 6.0 0.00 0.00 0.00 8 1019.4
20180922193451 89 142 4.0 6.0 0.00 0.00 0.00 9 1019.4
20180922192950 89 142 4.0 7.0 0.00 0.00 0.00 10 1019.4
20180922192433 86 178 2.0 9.0 0.00 0.00 0.00 11 1019.6
20180922191932 86 150 4.0 11.0 0.00 0.00 0.00 10 1019.7
20180922191447 87 163 3.0 7.0 0.00 0.00 0.00 11 1019.8
20180922190950 88 139 4.0 9.0 0.00 0.00 0.00 11 1019.9
20180922190451 88 89 3.0 6.0 0.00 0.00 0.00 10 1020.0
20180922190004 87 128 3.0 6.0 0.00 0.00 0.00 10 1020.1
20180922185438 86 97 3.0 9.0 0.00 0.00 0.00 11 1020.2
20180922184940 86 136 4.0 9.0 0.00 0.00 0.00 12 1020.2
20180922184441 87 110 3.0 8.0 0.00 0.00 0.00 12 1020.3
20180922183939 86 112 3.0 8.0 0.00 0.00 0.00 14 1020.4
20180922183439 85 138 3.0 6.0 0.00 0.00 0.00 12 1020.5
20180922182937 86 163 3.0 7.0 0.00 0.00 0.00 14 1020.5
20180922182440 84 128 4.0 7.0 0.00 0.00 0.00 14 1020.6
20180922181442 83 126 3.0 6.0 0.00 0.00 0.00 17 1020.8
20180922180945 82 161 3.0 7.0 0.00 0.00 0.00 17 1020.9
20180922180446 82 157 3.0 5.0 0.00 0.00 0.00 18 1021.0
20180922175946 82 174 3.0 5.0 0.00 0.00 0.00 18 1021.1
20180922175451 81 121 2.0 7.0 0.00 0.00 0.00 17 1021.1
20180922174951 81 161 2.0 7.0 0.00 0.00 0.00 17 1021.2
20180922174432 81 112 2.0 5.0 0.00 0.00 0.00 20 1021.2
20180922173950 80 22 2.0 4.0 0.00 0.00 0.00 24 1021.3
20180922173434 79 171 2.0 5.0 0.00 0.00 0.00 23 1021.5
20180922172934 79 186 2.0 5.0 0.00 0.00 0.00 22 1021.5
20180922172431 79 156 1.0 2.0 0.00 0.00 0.00 22 1021.6
20180922171948 78 150 1.0 4.0 0.00 0.00 0.00 22 1021.6
20180922171433 77 172 2.0 4.0 0.00 0.00 0.00 26 1021.7
20180922170933 77 161 2.0 4.0 0.00 0.00 0.00 28 1021.7
20180922170434 76 226 2.0 4.0 0.00 0.00 0.00 33 1021.7
20180922165934 75 146 1.0 7.0 0.00 0.00 0.00 28 1021.7
20180922165435 74 172 2.0 7.0 0.00 0.00 0.00 30 1021.7
20180922164942 73 156 3.0 7.0 0.00 0.00 0.00 29 1021.8
20180922164444 73 180 3.0 5.0 0.00 0.00 0.00 32 1021.9
20180922163945 73 169 1.0 6.0 0.00 0.00 0.00 34 1022.1
20180922163447 71 152 2.0 6.0 0.00 0.00 0.00 37 1022.2
20180922162946 70 165 2.0 6.0 0.00 0.00 0.00 37 1022.2
20180922162450 69 205 3.0 6.0 0.00 0.00 0.00 40 1022.2
20180922161948 68 174 3.0 5.0 0.00 0.00 0.00 41 1022.1
20180922161446 68 200 2.0 5.0 0.00 0.00 0.00 42 1022.2
20180922160947 67 141 3.0 5.0 0.00 0.00 0.00 43 1022.2
20180922160444 66 166 3.0 6.0 0.00 0.00 0.00 44 1022.2
20180922155947 66 177 3.0 5.0 0.00 0.00 0.00 45 1022.3
20180922155447 65 187 2.0 6.0 0.00 0.00 0.00 44 1022.4
20180922154944 64 165 3.0 6.0 0.00 0.00 0.00 48 1022.2
20180922154444 63 229 2.0 3.0 0.00 0.00 0.00 50 1022.4
20180922153944 62 170 1.0 5.0 0.00 0.00 0.00 52 1022.3
20180922153444 61 169 2.0 5.0 0.00 0.00 0.00 54 1022.2
20180922152941 60 173 3.0 4.0 0.00 0.00 0.00 55 1022.2
20180922152445 60 134 1.0 3.0 0.00 0.00 0.00 57 1022.3
20180922151946 59 136 2.0 3.0 0.00 0.00 0.00 59 1022.2
20180922151444 58 162 2.0 3.0 0.00 0.00 0.00 60 1022.3
20180922150942 58 153 1.0 3.0 0.00 0.00 0.00 61 1022.4
20180922150441 57 135 2.0 2.0 0.00 0.00 0.00 63 1022.4
20180922145944 56 171 1.0 2.0 0.00 0.00 0.00 65 1022.5
20180922145443 55 170 1.0 2.0 0.00 0.00 0.00 67 1022.5
20180922144942 55 171 0.0 2.0 0.00 0.00 0.00 70 1022.5
20180922144440 54 171 1.0 2.0 0.00 0.00 0.00 71 1022.5
20180922143937 54 171 1.0 2.0 0.00 0.00 0.00 72 1022.4
20180922143436 53 171 0.0 1.0 0.00 0.00 0.00 73 1022.4
20180922142958 52 171 0.0 3.0 0.00 0.00 0.00 74 1022.4
20180922142444 52 171 1.0 3.0 0.00 0.00 0.00 75 1022.5
20180922141948 51 171 1.0 3.0 0.00 0.00 0.00 76 1022.4
20180922141450 50 175 2.0 3.0 0.00 0.00 0.00 77 1022.3
20180922140948 49 172 2.0 3.0 0.00 0.00 0.00 77 1022.4
20180922140447 49 166 1.0 3.0 0.00 0.00 0.00 78 1022.4
20180922135952 48 163 1.0 3.0 0.00 0.00 0.00 78 1022.4
20180922135451 47 184 1.0 2.0 0.00 0.00 0.00 78 1022.5
20180922134952 47 184 1.0 2.0 0.00 0.00 0.00 79 1022.4
20180922134451 47 183 1.0 2.0 0.00 0.00 0.00 78 1022.4
20180922133950 46 183 1.0 2.0 0.00 0.00 0.00 78 1022.4
20180922133430 46 183 1.0 2.0 0.00 0.00 0.00 78 1022.4
20180922132936 46 183 1.0 3.0 0.00 0.00 0.00 78 1022.3
20180922132436 46 183 2.0 3.0 0.00 0.00 0.00 78 1022.2
20180922131937 46 183 0.0 0.0 0.00 0.00 0.00 77 1022.2
20180922131434 46 183 0.0 0.0 0.00 0.00 0.00 77 1022.2
20180922130955 46 183 0.0 0.0 0.00 0.00 0.00 77 1022.2
20180922130434 46 183 0.0 0.0 0.00 0.00 0.00 77 1022.2
20180922125939 46 183 0.0 1.0 0.00 0.00 0.00 77 1022.2
20180922125444 46 183 0.0 1.0 0.00 0.00 0.00 77 1022.0
20180922124945 46 183 0.0 1.0 0.00 0.00 0.00 77 1022.0
20180922124448 47 183 1.0 1.0 0.00 0.00 0.00 77 1022.0
20180922123950 47 183 1.0 2.0 0.00 0.00 0.00 77 1022.0
20180922123447 47 183 1.0 2.0 0.00 0.00 0.00 77 1022.1
20180922122951 47 183 0.0 2.0 0.00 0.00 0.00 77 1022.1
20180922122433 47 183 0.0 0.0 0.00 0.00 0.00 77 1022.0
20180922121951 47 183 0.0 2.0 0.00 0.00 0.00 77 1022.0
20180922121449 47 183 0.0 3.0 0.00 0.00 0.00 77 1022.1
20180922120948 47 183 2.0 3.0 0.00 0.00 0.00 77 1022.2
20180922120431 47 183 1.0 3.0 0.00 0.00 0.00 77 1022.2
20180922115952 47 183 2.0 3.0 0.00 0.00 0.00 76 1022.1
20180922115451 47 183 2.0 3.0 0.00 0.00 0.00 76 1022.2
20180922114948 47 183 2.0 3.0 0.00 0.00 0.00 76 1022.1
20180922114450 47 183 2.0 3.0 0.00 0.00 0.00 76 1022.2
20180922113950 48 179 2.0 3.0 0.00 0.00 0.00 76 1022.1
20180922113448 48 178 2.0 3.0 0.00 0.00 0.00 76 1022.0
20180922112945 48 179 2.0 3.0 0.00 0.00 0.00 76 1022.1
20180922112445 48 179 2.0 4.0 0.00 0.00 0.00 76 1022.2
20180922111948 48 173 2.0 4.0 0.00 0.00 0.00 76 1022.2
20180922111430 48 178 3.0 3.0 0.00 0.00 0.00 76 1022.2
20180922110936 48 186 2.0 3.0 0.00 0.00 0.00 76 1022.1
20180922110444 49 186 2.0 3.0 0.00 0.00 0.00 76 1022.1
20180922105930 49 186 2.0 3.0 0.00 0.00 0.00 76 1022.0
20180922105434 49 186 1.0 3.0 0.00 0.00 0.00 75 1022.0
20180922104931 49 186 2.0 3.0 0.00 0.00 0.00 75 1022.0
20180922104435 49 186 2.0 3.0 0.00 0.00 0.00 75 1022.0
20180922103935 49 190 2.0 3.0 0.00 0.00 0.00 75 1022.0
20180922103437 49 190 2.0 3.0 0.00 0.00 0.00 75 1022.0
20180922102935 49 190 2.0 3.0 0.00 0.00 0.00 75 1022.0
20180922102458 49 194 2.0 3.0 0.00 0.00 0.00 75 1022.1
20180922101935 50 193 3.0 3.0 0.00 0.00 0.00 75 1022.2
20180922101436 50 176 2.0 3.0 0.00 0.00 0.00 75 1022.1
20180922100934 50 185 2.0 3.0 0.00 0.00 0.00 74 1022.1
20180922100432 50 186 1.0 2.0 0.00 0.00 0.00 74 1022.1
20180922095935 50 186 2.0 3.0 0.00 0.00 0.00 74 1022.1